Time,TemperatureF,DewpointF,PressureIn,WindDirection,WindDirectionDegrees,WindSpeedMPH,WindSpeedGustMPH,Humidity,HourlyPrecipIn,Conditions,Clouds,dailyrainin,SolarRadiationWatts/m^2,SoftwareType,DateUTC
2013-08-21 05:22:00,51.0,51.0,-100.00,North,357,2.0,4.0,100,-99.99,,,0.32,0.000000,,2013-08-21 11:22:00,
2013-08-21 05:33:00,51.0,51.0,-100.00,North,357,2.0,4.0,100,-99.99,,,0.32,0.000000,,2013-08-21 11:33:00,
2013-08-21 05:42:00,51.0,51.0,-100.00,North,357,2.0,4.0,100,-99.99,,,0.32,0.000000,,2013-08-21 11:42:00,
2013-08-21 05:52:00,51.0,51.0,-100.00,North,357,2.0,4.0,100,-99.99,,,0.32,0.000000,,2013-08-21 11:52:00,
2013-08-21 08:21:00,56.0,56.0,-100.00,North,354,3.0,4.0,100,-99.99,,,0.32,105.000000,,2013-08-21 14:21:00,
2013-08-21 08:32:00,56.0,56.0,-100.00,North,354,3.0,4.0,100,-99.99,,,0.32,105.000000,,2013-08-21 14:32:00,
2013-08-21 08:42:00,56.0,56.0,-100.00,North,354,3.0,4.0,100,-99.99,,,0.32,105.000000,,2013-08-21 14:42:00,
2013-08-21 08:52:00,56.0,56.0,-100.00,North,354,3.0,4.0,100,-99.99,,,0.32,105.000000,,2013-08-21 14:52:00,
2013-08-21 09:22:00,64.0,58.0,-100.00,NNW,328,0.0,3.0,81,-99.99,,,0.32,246.000000,,2013-08-21 15:22:00,
2013-08-21 09:34:00,64.0,58.0,-100.00,NNW,328,0.0,3.0,81,-99.99,,,0.32,246.000000,,2013-08-21 15:34:00,
2013-08-21 09:43:00,64.0,58.0,-100.00,NNW,328,0.0,3.0,81,-99.99,,,0.32,246.000000,,2013-08-21 15:43:00,
2013-08-21 09:54:00,64.0,58.0,-100.00,NNW,328,0.0,3.0,81,-99.99,,,0.32,246.000000,,2013-08-21 15:54:00,
2013-08-21 10:24:00,71.0,61.0,-100.00,SSE,162,3.0,4.0,70,0.00,,,0.32,353.000000,,2013-08-21 16:24:00,
2013-08-21 10:34:00,71.0,61.0,-100.00,SSE,162,3.0,4.0,70,0.00,,,0.32,353.000000,,2013-08-21 16:34:00,
2013-08-21 10:43:00,71.0,61.0,-100.00,SSE,162,3.0,4.0,70,0.00,,,0.32,353.000000,,2013-08-21 16:43:00,
2013-08-21 10:53:00,71.0,61.0,-100.00,SSE,162,3.0,4.0,70,0.00,,,0.32,353.000000,,2013-08-21 16:53:00,
2013-08-21 11:23:00,76.0,59.0,-100.00,SE,144,3.0,6.0,55,0.00,,,-99.99,452.000000,,2013-08-21 17:23:00,
2013-08-21 11:34:00,76.0,59.0,-100.00,SE,144,3.0,6.0,55,0.00,,,-99.99,452.000000,,2013-08-21 17:34:00,
2013-08-21 11:43:00,76.0,59.0,-100.00,SE,144,3.0,6.0,55,0.00,,,-99.99,452.000000,,2013-08-21 17:43:00,
2013-08-21 11:53:00,76.0,59.0,-100.00,SE,144,3.0,6.0,55,0.00,,,-99.99,452.000000,,2013-08-21 17:53:00,
2013-08-21 12:22:00,81.0,53.0,-100.00,SSE,158,6.0,10.0,38,0.01,,,0.33,590.000000,,2013-08-21 18:22:00,
2013-08-21 12:32:00,81.0,53.0,-100.00,SSE,158,6.0,10.0,38,0.01,,,0.33,590.000000,,2013-08-21 18:32:00,
2013-08-21 12:42:00,81.0,53.0,-100.00,SSE,158,6.0,10.0,38,0.01,,,0.33,590.000000,,2013-08-21 18:42:00,
2013-08-21 12:52:00,81.0,53.0,-100.00,SSE,158,6.0,10.0,38,0.01,,,0.33,590.000000,,2013-08-21 18:52:00,
2013-08-21 13:22:00,80.0,51.0,-100.00,SSE,151,9.0,21.0,37,0.00,,,0.33,746.000000,,2013-08-21 19:22:00,
2013-08-21 13:32:00,80.0,51.0,-100.00,SSE,151,9.0,21.0,37,0.00,,,0.33,746.000000,,2013-08-21 19:32:00,
2013-08-21 13:42:00,80.0,51.0,-100.00,SSE,151,9.0,21.0,37,0.00,,,0.33,746.000000,,2013-08-21 19:42:00,
2013-08-21 13:52:00,80.0,51.0,-100.00,SSE,151,9.0,21.0,37,0.00,,,0.33,746.000000,,2013-08-21 19:52:00,
2013-08-21 14:22:00,77.0,52.0,-100.00,SSE,158,9.0,20.0,42,0.00,,,0.33,400.000000,,2013-08-21 20:22:00,
2013-08-21 14:32:00,77.0,52.0,-100.00,SSE,158,9.0,20.0,42,0.00,,,0.33,400.000000,,2013-08-21 20:32:00,
2013-08-21 14:42:00,77.0,52.0,-100.00,SSE,158,9.0,20.0,42,0.00,,,0.33,400.000000,,2013-08-21 20:42:00,
2013-08-21 14:52:00,77.0,52.0,-100.00,SSE,158,9.0,20.0,42,0.00,,,0.33,400.000000,,2013-08-21 20:52:00,
2013-08-21 15:21:00,78.0,52.0,-100.00,SSE,150,9.0,15.0,40,0.00,,,0.27,492.000000,,2013-08-21 21:21:00,
2013-08-21 15:34:00,78.0,52.0,-100.00,SSE,150,9.0,15.0,40,0.00,,,0.27,492.000000,,2013-08-21 21:34:00,
2013-08-21 15:44:00,78.0,52.0,-100.00,SSE,150,9.0,15.0,40,0.00,,,0.27,492.000000,,2013-08-21 21:44:00,
2013-08-21 15:54:00,78.0,52.0,-100.00,SSE,150,9.0,15.0,40,0.00,,,0.27,492.000000,,2013-08-21 21:54:00,
2013-08-21 16:24:00,78.0,52.0,-100.00,SSE,148,9.0,17.0,41,0.00,,,0.01,462.000000,,2013-08-21 22:24:00,
2013-08-21 16:34:00,78.0,52.0,-100.00,SSE,148,9.0,17.0,41,0.00,,,0.01,462.000000,,2013-08-21 22:34:00,
2013-08-21 16:43:00,78.0,52.0,-100.00,SSE,148,9.0,17.0,41,0.00,,,0.01,462.000000,,2013-08-21 22:43:00,
2013-08-21 16:53:00,78.0,52.0,-100.00,SSE,148,9.0,17.0,41,0.00,,,0.01,462.000000,,2013-08-21 22:53:00,
2013-08-21 17:22:00,78.0,51.0,-100.00,South,169,10.0,18.0,39,0.00,,,0.01,445.000000,,2013-08-21 23:22:00,
2013-08-21 17:34:00,78.0,51.0,-100.00,South,169,10.0,18.0,39,0.00,,,0.01,445.000000,,2013-08-21 23:34:00,
2013-08-21 17:43:00,78.0,51.0,-100.00,South,169,10.0,18.0,39,0.00,,,0.01,445.000000,,2013-08-21 23:43:00,
2013-08-21 17:53:00,78.0,51.0,-100.00,South,169,10.0,18.0,39,0.00,,,0.01,445.000000,,2013-08-21 23:53:00,
2013-08-21 18:22:00,73.0,50.0,-100.00,SSE,156,11.0,18.0,45,0.00,,,0.01,246.000000,,2013-08-22 00:22:00,
2013-08-21 18:32:00,73.0,50.0,-100.00,SSE,156,11.0,18.0,45,0.00,,,0.01,246.000000,,2013-08-22 00:32:00,
2013-08-21 18:42:00,73.0,50.0,-100.00,SSE,156,11.0,18.0,45,0.00,,,0.01,246.000000,,2013-08-22 00:42:00,
2013-08-21 18:52:00,73.0,50.0,-100.00,SSE,156,11.0,18.0,45,0.00,,,0.01,246.000000,,2013-08-22 00:52:00,
2013-08-21 19:22:00,70.0,49.0,-100.00,SSE,164,10.0,17.0,48,0.00,,,0.01,71.000000,,2013-08-22 01:22:00,
2013-08-21 19:32:00,70.0,49.0,-100.00,SSE,164,10.0,17.0,48,0.00,,,0.01,71.000000,,2013-08-22 01:32:00,
2013-08-21 19:42:00,70.0,49.0,-100.00,SSE,164,10.0,17.0,48,0.00,,,0.01,71.000000,,2013-08-22 01:42:00,
2013-08-21 19:52:00,70.0,49.0,-100.00,SSE,164,10.0,17.0,48,0.00,,,0.01,71.000000,,2013-08-22 01:52:00,
2013-08-21 20:22:00,67.0,51.0,-100.00,South,176,4.0,11.0,56,0.00,,,0.01,8.000000,,2013-08-22 02:22:00,
2013-08-21 20:32:00,67.0,51.0,-100.00,South,176,4.0,11.0,56,0.00,,,0.01,8.000000,,2013-08-22 02:32:00,
2013-08-21 20:43:00,67.0,51.0,-100.00,South,176,4.0,11.0,56,0.00,,,0.01,8.000000,,2013-08-22 02:43:00,
2013-08-21 20:52:00,67.0,51.0,-100.00,South,176,4.0,11.0,56,0.00,,,0.01,8.000000,,2013-08-22 02:52:00,
2013-08-21 21:22:00,60.0,52.0,-100.00,NW,318,0.0,2.0,75,0.00,,,0.01,0.000000,,2013-08-22 03:22:00,
2013-08-21 21:34:00,60.0,52.0,-100.00,NW,318,0.0,2.0,75,0.00,,,0.01,0.000000,,2013-08-22 03:34:00,
2013-08-21 21:45:00,60.0,52.0,-100.00,NW,318,0.0,2.0,75,0.00,,,0.01,0.000000,,2013-08-22 03:45:00,
2013-08-21 21:54:00,60.0,52.0,-100.00,NW,318,0.0,2.0,75,0.00,,,0.01,0.000000,,2013-08-22 03:54:00,